Terug naar catalogus

ISKRA-MAI-85

ActiefWetenschapSSO
NORAD 42827·PAYLOAD·🇷🇺 Russia
Deze satellietnaam is nog niet bevestigd door officiële bronnen.

Gelanceerd Jul 14, 2017 vanaf Baikonur Cosmodrome

Loading…

Volgende Passages (komende 24 uur)

TLE

VersSource: Space-Track

Epoch: Sep 14, 2026, 10:41 UTC

1 42827U 17042C   26257.44579790  .00010907  00000-0  40216-3 0  9997
2 42827  97.4163  72.3049 0009418 116.4433 243.7773 15.27932749501451

Volg ISKRA-MAI-85 in realtime met AllMySat

Download on the App Store